Regional Weather Roundup
Issued by NWS Upton, NY

Current Version | Previous Version | Graphics & Text | Print | Product List | Glossary Off
Versions: 1 2 3 4 5 6 7 8 9 10 11 12 13 14 15 16 17 18 19 20 21 22 23 24 25 26 27 28 29 30 31 32 33 34 35 36 37 38 39 40 41 42 43 44 45 46 47 48 49 50

000
ASUS41 KOKX 280005
RWROKX

REGIONAL WEATHER ROUNDUP
NATIONAL WEATHER SERVICE NEW YORK NY
700 PM EST TUE JAN 27 2015

NOTE: "FAIR" INDICATES FEW OR NO CLOUDS BELOW 12,000 FEET WITH NO
SIGNIFICANT WEATHER AND/OR OBSTRUCTIONS TO VISIBILITY.

NYZ071-072-176-178-NJZ106-104-280100-
NEW YORK CITY METRO AREA


CITY           SKY/WX    TMP DP  RH WIND       PRES   REMARKS
CENTRAL PARK   CLOUDY    26  14  60 VRB5      29.74R WCI  20
LAGUARDIA APRT CLOUDY    26  15  63 N14       29.72R WCI  14
KENNEDY INTL   CLOUDY    26  15  63 N13       29.74R WCI  15
NEWARK/LIBERTY CLOUDY    26  14  60 NW17      29.74R WCI  13
BRNX BOT. GARD   N/A    N/A N/A N/A N13       29.73F
TETERBORO      CLOUDY    26  14  60 N8        29.73R WCI  18
$$

NYZ177-179-078>081-280100-
LONG ISLAND NEW YORK

CITY           SKY/WX    TMP DP  RH WIND       PRES   REMARKS
FARMINGDALE    CLOUDY    24  12  60 N14G28    29.70R WCI  12
ISLIP          CLOUDY    21  12  68 N23G35    29.67R BLWGSNOWWCI   5
SHIRLEY        CLOUDY    22  10  60 NW20G28   29.69R WCI   7
WESTHAMPTON    CLOUDY    21  12  68 NW15G24   29.68R WCI   8
MONTAUK POINT    N/A     23  15  71 NW20G30   29.63R WCI   8
$$

NYZ052-065-067-280100-
HUDSON VALLEY

CITY           SKY/WX    TMP DP  RH WIND       PRES   REMARKS
WHITE PLAINS   CLOUDY    20  10  65 N22G30    29.70R WCI   3
NEWBURGH       CLOUDY    16  10  79 NE14      29.75R WCI   1
MONTGOMERY     CLOUDY    17  11  77 NE8       29.74R WCI   7
POUGHKEEPSIE   CLOUDY    17   7  64 N10       29.77R WCI   5
ALBANY         FLURRIES  12   0  58 N14       29.85R WCI  -3
$$

NJZ001-105-106-008-010-013-015-019>022-104-280100-
NEW JERSEY

CITY           SKY/WX    TMP DP  RH WIND       PRES   REMARKS
NEWARK/LIBERTY CLOUDY    26  14  60 NW17      29.74R WCI  13
TETERBORO      CLOUDY    26  14  60 N8        29.73R WCI  18
CALDWELL       CLOUDY    24  11  57 N8        29.75R WCI  15
MORRISTOWN     CLOUDY    25  10  54 NW14G22   29.75R WCI  13
SOMERVILLE     CLOUDY    26   8  46 N12G23    29.75R HAZE    WCI  16
SUSSEX         CLOUDY    21   6  52 NW12G20   29.75R WCI   9
ANDOVER          N/A     20   5  52 N13G18    29.76R WCI   7
TRENTON        CLOUDY    27  10  49 N9        29.76R WCI  18
MILLVILLE      PTCLDY    31  11  43 NW10      29.78R WCI  22
ATLANTIC CITY  MOCLDY    29  15  56 NW12      29.75R WCI  19
WRIGHTSTOWN    CLEAR     28  13  53 NW15      29.73R WCI  16
TOMS RIVER     CLOUDY    27  19  74 NW8       29.75R WCI  18
BELMAR         CLOUDY    27  14  59 NW13      29.73R WCI  16
$$

PAZ047>061-062-071-280100-
EASTERN PENNSYLVANIA

CITY           SKY/WX    TMP DP  RH WIND       PRES   REMARKS
PHILADELPHIA   MOCLDY    32   8  36 NW14      29.79R WCI  22
ALLENTOWN      CLOUDY    23   8  52 NW15      29.80R WCI  10
SCRANTON       CLOUDY    15   4  61 N8G23     29.85R WCI   4
$$

CTZ002-004>006-009-010-012-RIZ004-006-007-MAZ004-011-015-280100-
SOUTHERN NEW ENGLAND
 IN CT

CITY           SKY/WX    TMP DP  RH WIND       PRES   REMARKS
BRADLEY INTL   LGT SNOW  17   8  67 NW13      29.69R WCI   4
HARTFORD       CLOUDY    18   9  68 NW13G26   29.71R HAZE    WCI   5
DANBURY        CLOUDY    17   6  62 N18G26    29.71R WCI   1
WTRBRY/OXFORD  NOT AVBL
BRIDGEPORT     CLOUDY    20  10  65 N18G32    29.70R WCI   5
MERIDEN        LGT SNOW  16   9  74 NW8       29.70R WCI   5
NEW HAVEN      CLOUDY    19   8  62 NW15G26   29.69R WCI   5
CHESTER        LGT SNOW  18  14  86 NW13G29   29.64R WCI   4
GROTON         FLURRIES  19  13  77 NW21G28   29.62R WCI   3
WILLIMANTIC    LGT SNOW  16   8  71 N13G28    29.65R WCI   2

 IN RI

CITY           SKY/WX    TMP DP  RH WIND       PRES   REMARKS
PROVIDENCE     LGT SNOW  17  11  77 NW15G25   29.58R VSB 1   WCI   2
BLOCK ISLAND   CLOUDY    21  10  63 NW21G29   29.57R WCI   6
WESTERLY       LGT SNOW  19  12  74 NW13G23   29.61R WCI   6

 IN MA

CITY           SKY/WX    TMP DP  RH WIND       PRES   REMARKS
BOSTON         LGT SNOW  15  11  83 NW20G30   29.57R VSB 3/4 WCI  -2
WORCESTER      LGT SNOW  11   6  81 NW18G31   29.55R WCI  -7
WESTFIELD      CLOUDY    15   5  64 NW18      29.68R WCI  -2
PROVINCETOWN     N/A    N/A N/A N/A MISG        N/A
NANTUCKET      SNOW     N/A N/A N/A MISG      29.43R
$$

ANZ330-335-338-340-345-350-353-355-280100-
COASTAL MARINE OBSERVATIONS


STATION/POSITION TIME  SKY/WX   TEMP    WIND        PRES    VSBY  WAVE
                                AIR SEA DIR/SP/G                  HT/PER
                 (UTC)          (F)     (DEG/KT/KT) (MB)    (MI)  (FT/S)
NY HARB ENTRANCE 0000            29 40  340/ 19/ 23 1006.1          6/11
4S FIRE IS       0000               38                N/A           5/12
20S FIRE ISLAND  2300               43              1004.3          9/ 6
23SW MTP         0000                                 N/A           8/12
HUDSON CANYON    NOT AVBL
EXECUTION ROCKS  0000            26 34  350/ 14/ 19   N/A
WESTERN LI SOUND 0000            25     330/ 16/ 19   N/A           1/ 3
CENTRAL LI SOUND 0000            21 36  320/ 23/ 29   N/A           4/ 4
EASTERN LI SOUND NOT AVBL
ROBBINS REEF     0000            27     330/ 17/ 21 1005.4
$$


>>>>>>>>>>>>>>>>>>>>>>>>>>>> KEY <<<<<<<<<<<<<<<<<<<<<<<<<<<
>                                                          <
>     SKY/WX - SKY CONDITION/PRESENT WEATHER               <
>     TMP    - TEMPERATURE IN FAHRENHEIT                   <
>     DP     - DEWPOINT IN FAHRENHEIT                      <
>     RH     - RELATIVE HUMIDITY IN PERCENT                <
>     WIND   - DIRECTION AND SPEED IN MPH                  <
>     PRES   - MEAN SEA LEVEL PRESSURE IN INCHES OF HG     <
>     WCI    - WIND CHILL INDEX                            <
>     VSB    - VISIBILITY IN MILES                         <
>     HX     - HEAT INDEX                                  <
>     TC     - TEMPERATURE IN CELSIUS                      <
>     VRB    - VARIABLE WIND DIRECTION                     <
>                                                          <
>>>>>>>>>>>>>>>>>>>>>>>>>>>> KEY <<<<<<<<<<<<<<<<<<<<<<<<<<<





USA.gov is the U.S. government's official web portal to all federal, state and local government web resources and services.